Wind_Speed
45 44 45 47 48 46 44 43 43 41 44 44 39 40 36 38 40 41 41 43 44 44 45 44 42 42 41 41 37 38 38 38 37 38 39 38 39 37 36 37 38 38 38
41 46 46 48 48 43 43 44 43 44 45 42 41 41 40 35 35 37 37 37 39 42 43 42 43 41 42 40 39 39 38 36 37 37 37 36 38 37 36 35 35 36 38
39 41 47 49 48 45 45 44 43 44 44 39 42 42 42 41 36 36 36 35 34 34 35 38 39 38 38 38 39 37 36 35 36 37 36 35 36 34 34 34 35 34 34
39 40 42 44 45 46 45 43 44 46 40 39 40 42 41 39 37 36 35 34 31 30 28 30 33 34 35 35 34 34 34 35 36 36 36 37 39 38 36 34 32 32 32
39 40 42 41 42 42 44 43 42 43 41 40 38 40 42 37 35 33 32 31 30 29 28 28 30 31 32 32 33 34 32 32 34 36 36 38 38 38 37 36 35 34 30
41 42 42 42 44 46 46 45 44 42 40 39 37 39 41 40 38 35 33 32 32 29 26 27 26 28 28 29 32 33 31 32 33 37 39 40 40 40 39 36 35 34 33
39 39 39 41 41 44 46 43 42 41 41 38 37 40 40 39 38 37 34 32 33 32 30 31 29 29 29 30 29 30 32 33 31 32 39 41 42 41 39 38 36 33 32
37 35 37 38 33 33 34 36 38 40 38 36 38 39 42 42 40 37 36 36 36 35 35 36 38 36 36 35 34 32 30 30 32 37 36 38 40 42 38 37 35 32 28
35 31 35 39 35 32 33 35 36 37 36 37 37 43 42 41 40 38 38 38 39 40 41 42 42 41 42 42 41 40 38 37 36 37 39 36 38 39 39 38 36 34 30
36 31 34 36 36 35 34 34 35 35 37 39 41 41 43 42 43 43 41 41 40 39 43 43 43 45 45 45 45 47 46 44 43 42 40 40 39 40 41 39 40 39 40
39 37 33 36 34 34 34 37 39 39 42 43 44 44 44 43 42 41 41 43 43 44 44 45 45 46 50 50 52 51 50 50 50 50 47 43 43 40 40 42 42 42 44
41 38 38 38 38 36 39 42 42 43 41 42 44 40 39 42 43 44 47 48 49 51 51 52 54 53 52 53 54 55 55 54 53 53 51 49 47 40 39 43 46 47 45
40 41 39 41 45 42 43 42 42 43 41 42 43 42 47 49 50 51 54 54 55 54 54 56 57 59 58 60 58 57 57 56 56 56 55 55 52 50 46 47 45 48 51
41 42 44 47 49 47 45 44 45 46 44 44 46 51 54 56 56 55 55 55 55 58 60 60 62 63 63 61 59 59 62 61 61 61 61 59 61 56 55 53 50 48 53
47 48 50 50 50 49 48 47 45 47 49 52 53 54 55 53 52 54 54 52 52 52 55 58 58 60 63 64 64 66 67 67 67 64 64 65 66 65 61 60 55 53 55
51 50 53 53 52 51 50 50 47 48 51 54 54 56 54 54 56 57 57 60 60 61 63 64 66 70 69 69 70 69 70 69 70 67 66 66 68 71 69 64 65 60 60
52 53 53 55 54 52 50 49 48 46 49 53 55 55 56 58 58 60 61 62 65 65 67 68 71 73 72 71 71 75 73 72 73 74 71 70 66 66 69 75 73 70 66
53 52 54 52 51 49 48 48 48 51 50 52 55 58 61 62 63 64 66 68 68 72 71 75 78 79 81 76 72 71 71 72 73 73 73 74 71 66 67 71 76 73 75
53 51 53 53 53 51 53 54 56 57 58 59 59 61 61 66 67 69 71 73 76 76 78 79 82 82 79 75 66 65 68 71 73 74 74 72 70 72 72 73 73 80 79
52 52 53 55 57 57 58 60 63 65 64 67 68 70 70 73 75 77 76 79 81 82 83 87 83 84 77 62 65 63 62 68 70 72 71 73 74 78 74 77 82 81 86
59 59 59 61 60 59 62 63 67 70 71 73 75 74 75 78 78 80 81 84 85 86 86 84 81 77 70 73 69 72 77 69 67 76 84 84 92 89 88 88 88 88 89
64 65 66 68 69 65 65 69 71 72 72 76 79 81 83 84 84 86 87 87 85 78 73 75 84 84 85 89 84 80 87 89 84 91 92 91 96 96 105 107 99 86 82
64 64 65 65 67 69 73 74 77 75 79 82 83 87 89 93 91 91 89 87 87 79 84 81 82 81 78 82 83 90 94 97 101 98 100 99 95 98 105 113 112 99 90
68 71 76 75 74 76 76 73 76 79 85 88 90 92 95 89 92 95 93 89 89 89 87 90 93 93 89 90 98 104 111 107 108 111 100 93 88 88 94 100 110 110 103
76 76 79 79 79 80 79 79 84 83 87 88 93 95 95 95 94 88 91 90 91 95 95 97 102 104 98 98 114 107 108 114 119 112 95 89 85 82 85 87 88 84 85
81 82 83 83 84 86 88 86 88 89 95 99 101 102 97 100 96 98 99 96 96 98 97 106 109 110 106 112 112 111 116 120 113 102 90 88 81 79 77 75 73 72 75
Wind_Direction
276 279 275 274 278 284 278 279 286 282 289 287 289 289 292 289 284 280 277 275 274 273 274 276 277 276 275 273 273 275 274 277 279 282 285 286 284 282 281 280 277 273 267
279 272 273 276 281 279 275 281 281 279 283 289 285 288 289 294 294 291 289 282 278 275 276 276 276 275 272 273 276 278 276 277 276 278 282 284 283 279 278 278 272 268 269
286 282 276 277 279 278 281 279 276 280 284 290 284 284 288 288 296 298 292 286 282 279 277 274 274 274 272 273 276 275 274 272 271 274 276 278 277 276 276 276 271 269 270
287 286 284 280 278 278 278 276 276 280 285 289 285 278 287 287 293 297 294 287 288 288 283 280 275 270 273 274 274 276 277 275 272 271 270 270 268 271 274 274 270 268 270
290 290 291 288 281 278 279 278 280 282 287 290 284 278 283 286 291 294 291 283 283 284 281 278 275 273 272 272 274 276 277 277 276 271 268 268 267 266 270 273 271 268 269
298 298 298 293 282 280 277 280 285 285 286 287 281 280 287 287 287 288 286 281 279 279 276 277 277 276 275 280 279 273 272 271 273 269 267 267 265 265 269 272 272 267 267
298 295 296 295 286 280 279 282 285 287 288 281 279 283 284 286 287 290 283 285 281 278 275 275 273 272 273 276 280 279 276 269 274 275 269 266 265 266 268 271 271 265 264
302 298 300 305 295 285 282 284 287 289 283 278 281 283 288 289 290 288 285 283 283 282 280 281 277 275 270 273 273 270 273 269 262 264 272 273 269 264 263 265 264 260 257
298 295 295 304 301 291 287 284 281 280 278 282 280 284 287 289 290 290 288 287 284 283 283 284 281 279 278 277 276 272 270 269 266 264 262 263 268 262 263 266 264 260 264
292 296 288 292 294 295 286 280 280 280 281 280 284 286 288 289 292 290 290 286 284 285 283 282 282 283 279 277 277 276 273 268 269 270 270 264 263 263 261 260 263 263 266
291 293 291 292 291 285 283 284 285 283 283 284 285 285 285 286 287 288 288 286 289 288 288 286 285 282 280 280 278 276 275 272 268 268 268 264 265 263 261 259 259 258 259
288 291 288 288 288 285 290 290 285 278 281 284 283 282 285 288 288 289 288 289 289 289 290 287 285 283 279 279 277 276 274 273 272 268 266 261 261 258 255 256 254 257 256
283 281 278 284 284 287 291 284 278 281 280 280 278 283 282 283 286 287 289 289 288 286 286 285 285 285 282 283 280 273 274 274 272 270 265 264 260 256 251 249 247 248 255
281 279 272 279 284 285 284 283 280 280 279 277 278 278 282 285 287 288 288 288 289 290 288 285 283 282 282 281 279 277 275 272 271 271 267 261 260 256 253 248 246 241 247
280 279 279 281 282 282 283 281 280 280 279 278 280 281 282 283 284 284 284 284 288 289 287 286 286 287 285 282 280 278 275 274 273 267 265 262 259 257 252 249 246 240 238
276 277 279 280 280 281 281 280 278 279 278 277 279 281 279 282 285 288 289 293 294 294 293 292 292 291 291 290 284 282 278 275 275 271 267 261 259 257 254 252 248 240 234
277 279 281 282 284 280 280 279 277 276 277 281 281 284 285 287 287 289 293 292 293 296 294 294 296 295 294 292 288 288 284 278 274 274 268 265 260 257 257 252 247 243 233
277 279 279 280 277 278 274 273 277 275 277 281 285 289 292 290 290 294 294 296 297 297 297 295 295 297 296 292 288 284 280 275 274 271 270 267 261 251 247 251 251 245 241
273 271 272 271 273 274 275 276 276 277 279 283 285 288 293 295 295 297 298 296 296 296 295 294 293 294 293 290 285 276 276 271 271 268 266 265 261 255 248 245 246 244 241
277 275 277 278 275 274 275 276 275 277 279 283 286 289 289 292 295 296 294 295 295 296 296 295 290 289 284 286 285 296 290 275 270 266 264 260 261 258 256 250 247 241 238
273 274 277 278 282 284 283 284 284 284 284 287 288 291 291 290 291 292 294 295 296 297 295 292 285 286 284 282 293 295 291 288 274 270 265 265 259 255 252 255 250 246 239
278 281 282 283 283 283 284 284 288 292 298 297 295 296 295 298 299 300 299 299 299 296 298 294 289 288 283 285 287 295 298 293 287 285 283 273 273 269 258 260 258 254 246
277 276 280 282 282 285 290 290 291 297 300 303 305 304 301 301 299 298 297 297 298 294 303 302 300 292 289 286 290 297 297 294 296 292 286 286 275 269 266 262 261 264 257
279 281 283 284 286 287 295 296 291 291 297 297 300 299 301 298 297 296 296 297 303 303 302 305 301 298 295 293 300 296 296 296 291 296 289 287 278 272 268 265 263 262 260
284 282 284 287 289 288 292 290 292 291 293 295 297 300 298 299 298 297 299 303 301 303 298 297 298 299 297 297 301 297 295 295 296 294 292 288 281 274 266 263 261 258 253
282 284 285 285 288 290 292 293 293 293 292 294 296 301 296 297 301 302 302 302 300 298 296 296 298 298 298 297 300 297 296 296 296 295 292 288 282 275 269 264 257 255 249
Height
10841 10838 10836 10835 10833 10831 10829 10828 10825 10822 10819 10817 10817 10815 10812 10809 10807 10806 10805 10804 10803 10802 10802 10801 10801 10800 10800 10800 10799 10798 10798 10796 10796 10795 10795 10794 10793 10793 10793 10792 10791 10789 10788
10833 10831 10829 10827 10825 10824 10822 10821 10819 10816 10813 10811 10809 10808 10806 10804 10802 10800 10798 10797 10797 10796 10795 10793 10793 10793 10792 10792 10792 10791 10791 10790 10789 10789 10789 10788 10788 10787 10787 10786 10785 10784 10782
10825 10823 10822 10820 10818 10816 10815 10813 10812 10811 10808 10806 10803 10802 10801 10798 10796 10794 10792 10790 10790 10789 10788 10788 10787 10786 10785 10785 10784 10784 10783 10783 10783 10783 10784 10785 10780 10781 10781 10780 10779 10778 10778
10820 10816 10814 10812 10810 10807 10806 10805 10804 10803 10801 10799 10797 10796 10795 10792 10790 10787 10785 10784 10783 10782 10782 10781 10780 10779 10779 10779 10779 10778 10778 10777 10777 10777 10777 10778 10776 10775 10775 10774 10774 10773 10773
10815 10811 10808 10805 10802 10800 10797 10796 10796 10794 10793 10791 10789 10788 10788 10786 10783 10781 10780 10778 10777 10776 10775 10774 10773 10773 10773 10772 10772 10772 10772 10771 10771 10770 10769 10769 10769 10769 10768 10768 10768 10768 10768
10807 10804 10801 10798 10795 10792 10791 10789 10789 10787 10785 10783 10782 10781 10780 10779 10777 10775 10773 10772 10770 10769 10769 10767 10767 10766 10766 10765 10763 10764 10764 10764 10764 10763 10763 10762 10761 10761 10761 10762 10762 10762 10762
10799 10796 10793 10790 10786 10783 10782 10782 10780 10778 10777 10776 10775 10774 10773 10772 10770 10769 10766 10765 10764 10763 10762 10761 10760 10759 10758 10757 10756 10755 10755 10755 10755 10756 10755 10754 10754 10755 10756 10756 10756 10756 10756
10792 10788 10784 10782 10779 10776 10774 10773 10772 10771 10769 10769 10768 10767 10766 10764 10763 10762 10760 10759 10758 10757 10755 10754 10753 10752 10751 10749 10748 10748 10747 10747 10747 10747 10747 10747 10747 10748 10749 10749 10749 10750 10751
10786 10782 10777 10774 10772 10770 10768 10766 10765 10764 10763 10762 10761 10760 10759 10757 10756 10755 10754 10752 10751 10750 10749 10747 10746 10744 10743 10741 10740 10740 10739 10739 10737 10737 10738 10739 10739 10741 10742 10743 10744 10745 10747
10780 10777 10773 10769 10766 10764 10763 10761 10760 10758 10756 10755 10754 10753 10752 10750 10749 10748 10747 10745 10744 10742 10740 10738 10738 10737 10735 10733 10732 10731 10731 10730 10729 10729 10729 10730 10731 10732 10734 10736 10737 10739 10740
10772 10770 10767 10764 10762 10760 10759 10757 10755 10753 10750 10749 10747 10746 10745 10743 10741 10739 10738 10737 10735 10734 10732 10731 10729 10729 10727 10725 10724 10722 10721 10722 10721 10720 10719 10720 10721 10723 10725 10726 10726 10731 10732
10765 10762 10759 10757 10756 10754 10752 10750 10748 10747 10744 10742 10740 10739 10736 10734 10732 10730 10729 10727 10726 10724 10722 10721 10720 10719 10718 10716 10713 10710 10710 10710 10711 10710 10709 10711 10711 10713 10715 10716 10718 10720 10723
10756 10754 10752 10750 10748 10746 10744 10742 10739 10738 10737 10734 10732 10730 10728 10725 10723 10721 10719 10717 10715 10713 10711 10709 10707 10706 10706 10704 10702 10701 10698 10697 10697 10698 10699 10702 10700 10700 10702 10703 10707 10709 10711
10746 10744 10743 10741 10739 10736 10734 10732 10729 10728 10727 10725 10723 10720 10717 10715 10712 10710 10707 10705 10704 10701 10698 10695 10693 10691 10690 10689 10688 10686 10685 10683 10684 10683 10684 10688 10686 10688 10690 10690 10694 10699 10701
10736 10735 10733 10731 10729 10727 10724 10721 10719 10717 10716 10714 10713 10710 10707 10704 10701 10698 10696 10695 10692 10689 10685 10682 10679 10677 10675 10674 10673 10671 10669 10668 10667 10667 10667 10670 10670 10672 10675 10678 10680 10685 10689
10724 10723 10721 10719 10717 10715 10713 10712 10709 10707 10705 10702 10700 10697 10694 10691 10688 10686 10684 10681 10677 10673 10669 10666 10663 10660 10657 10654 10652 10651 10649 10648 10647 10649 10649 10651 10653 10653 10659 10665 10668 10668 10672
10713 10712 10709 10708 10706 10704 10702 10701 10699 10696 10695 10692 10688 10686 10682 10679 10676 10672 10669 10665 10661 10657 10653 10649 10646 10641 10639 10636 10632 10629 10627 10627 10628 10627 10628 10629 10631 10639 10643 10643 10644 10651 10656
10700 10699 10698 10696 10694 10694 10692 10690 10689 10686 10683 10680 10677 10674 10670 10665 10662 10659 10655 10651 10646 10642 10637 10631 10627 10623 10619 10616 10613 10611 10608 10606 10605 10605 10605 10608 10613 10610 10612 10617 10625 10635 10637
10688 10686 10685 10684 10682 10681 10680 10678 10676 10674 10672 10670 10666 10663 10658 10653 10647 10643 10640 10636 10631 10625 10619 10614 10609 10605 10602 10597 10596 10593 10590 10587 10586 10584 10585 10588 10591 10589 10591 10594 10596 10605 10612
10677 10675 10673 10672 10670 10668 10666 10664 10662 10661 10659 10656 10652 10648 10644 10639 10635 10630 10624 10619 10613 10608 10602 10596 10591 10586 10583 10579 10575 10572 10570 10570 10567 10566 10570 10568 10570 10568 10568 10571 10574 10577 10584
10666 10663 10660 10658 10657 10656 10655 10651 10649 10647 10645 10641 10636 10632 10626 10622 10617 10612 10606 10599 10593 10587 10581 10575 10570 10566 10565 10560 10555 10550 10544 10546 10547 10547 10547 10545 10543 10543 10543 10543 10546 10553 10560
10654 10651 10648 10645 10643 10641 10639 10636 10634 10631 10628 10624 10619 10615 10609 10603 10597 10591 10585 10579 10573 10567 10560 10554 10549 10545 10543 10538 10533 10528 10522 10517 10524 10514 10513 10515 10515 10514 10513 10513 10516 10525 10537
10642 10638 10634 10631 10627 10626 10624 10621 10617 10612 10608 10604 10599 10594 10589 10583 10578 10571 10565 10559 10552 10546 10539 10531 10526 10521 10516 10513 10508 10501 10497 10490 10488 10493 10483 10477 10480 10476 10480 10478 10480 10488 10505
10626 10623 10618 10617 10613 10610 10605 10603 10598 10594 10590 10584 10579 10574 10569 10562 10557 10552 10545 10536 10529 10521 10514 10508 10501 10495 10489 10484 10477 10472 10466 10460 10456 10447 10445 10443 10440 10440 10440 10440 10445 10453 10465
10610 10606 10601 10599 10596 10593 10588 10585 10580 10576 10571 10566 10559 10554 10548 10542 10535 10529 10521 10511 10503 10498 10489 10483 10475 10468 10460 10453 10449 10439 10431 10425 10416 10411 10405 10401 10403 10404 10406 10408 10411 10418 10428
10593 10587 10582 10578 10576 10573 10568 10564 10559 10554 10550 10543 10538 10532 10525 10517 10511 10504 10495 10485 10478 10472 10463 10455 10449 10441 10431 10424 10416 10408 10400 10393 10385 10378 10375 10370 10368 10370 10374 10378 10385 10391 10398